Time,TemperatureF,DewpointF,PressureIn,WindDirection,WindDirectionDegrees,WindSpeedMPH,WindSpeedGustMPH,Humidity,HourlyPrecipIn,Conditions,Clouds,dailyrainin,SoftwareType,DateUTC
2013-04-01 00:00:00,51.0,51.0,29.80,West,260,10.0,10.0,99,-99.99,,,-99.99,,2013-04-01 04:00:00,
2013-04-01 00:12:00,51.0,51.0,29.80,West,260,10.0,10.0,99,-99.99,,,-99.99,,2013-04-01 04:12:00,
2013-04-01 00:22:00,51.0,51.0,29.80,West,260,10.0,10.0,99,-99.99,,,-99.99,,2013-04-01 04:22:00,
2013-04-01 00:32:00,51.0,51.0,29.80,West,260,10.0,10.0,99,-99.99,,,-99.99,,2013-04-01 04:32:00,
2013-04-01 00:42:00,51.0,51.0,29.80,West,260,10.0,10.0,99,-99.99,,,-99.99,,2013-04-01 04:42:00,
2013-04-01 00:52:00,51.0,51.0,29.80,West,260,10.0,10.0,99,-99.99,,,-99.99,,2013-04-01 04:52:00,
2013-04-01 01:00:00,51.0,51.0,29.80,West,260,6.0,6.0,100,-99.99,,,-99.99,,2013-04-01 05:00:00,
2013-04-01 01:21:00,51.0,51.0,29.80,West,260,6.0,6.0,100,-99.99,,,-99.99,,2013-04-01 05:21:00,
2013-04-01 01:31:00,51.0,51.0,29.80,West,260,6.0,6.0,100,-99.99,,,-99.99,,2013-04-01 05:31:00,
2013-04-01 01:42:00,51.0,51.0,29.80,West,260,6.0,6.0,100,-99.99,,,-99.99,,2013-04-01 05:42:00,
2013-04-01 01:52:00,51.0,51.0,29.80,West,260,6.0,6.0,100,-99.99,,,-99.99,,2013-04-01 05:52:00,
2013-04-01 02:00:00,48.0,48.0,29.79,SSW,200,7.0,7.0,100,-99.99,,,-99.99,,2013-04-01 06:00:00,
2013-04-01 02:11:00,48.0,48.0,29.79,SSW,200,7.0,7.0,100,-99.99,,,-99.99,,2013-04-01 06:11:00,
2013-04-01 02:22:00,48.0,48.0,29.79,SSW,200,7.0,7.0,100,-99.99,,,-99.99,,2013-04-01 06:22:00,
2013-04-01 02:32:00,48.0,48.0,29.79,SSW,200,7.0,7.0,100,-99.99,,,-99.99,,2013-04-01 06:32:00,
2013-04-01 02:42:00,48.0,48.0,29.79,SSW,200,7.0,7.0,100,-99.99,,,-99.99,,2013-04-01 06:42:00,
2013-04-01 02:52:00,48.0,48.0,29.79,SSW,200,7.0,7.0,100,-99.99,,,-99.99,,2013-04-01 06:52:00,
2013-04-01 03:00:00,48.0,48.0,29.78,SW,230,6.0,7.0,100,-99.99,,,-99.99,,2013-04-01 07:00:00,
2013-04-01 03:21:00,48.0,48.0,29.78,SW,230,6.0,7.0,100,-99.99,,,-99.99,,2013-04-01 07:21:00,
2013-04-01 03:31:00,48.0,48.0,29.78,SW,230,6.0,7.0,100,-99.99,,,-99.99,,2013-04-01 07:31:00,
2013-04-01 03:42:00,48.0,48.0,29.78,SW,230,6.0,7.0,100,-99.99,,,-99.99,,2013-04-01 07:42:00,
2013-04-01 03:52:00,48.0,48.0,29.78,SW,230,6.0,7.0,100,-99.99,,,-99.99,,2013-04-01 07:52:00,
2013-04-01 04:00:00,49.0,49.0,29.78,West,270,9.0,9.0,100,-99.99,,,-99.99,,2013-04-01 08:00:00,
2013-04-01 04:21:00,49.0,49.0,29.78,West,270,9.0,9.0,100,-99.99,,,-99.99,,2013-04-01 08:21:00,
2013-04-01 04:31:00,49.0,49.0,29.78,West,270,9.0,9.0,100,-99.99,,,-99.99,,2013-04-01 08:31:00,
2013-04-01 04:42:00,49.0,49.0,29.78,West,270,9.0,9.0,100,-99.99,,,-99.99,,2013-04-01 08:42:00,
2013-04-01 04:52:00,49.0,49.0,29.78,West,270,9.0,9.0,100,-99.99,,,-99.99,,2013-04-01 08:52:00,
2013-04-01 05:00:00,49.0,49.0,29.79,West,280,9.0,9.0,100,-99.99,,,-99.99,,2013-04-01 09:00:00,
2013-04-01 05:21:00,49.0,49.0,29.79,West,280,9.0,9.0,100,-99.99,,,-99.99,,2013-04-01 09:21:00,
2013-04-01 05:32:00,49.0,49.0,29.79,West,280,9.0,9.0,100,-99.99,,,-99.99,,2013-04-01 09:32:00,
2013-04-01 05:42:00,49.0,49.0,29.79,West,280,9.0,9.0,100,-99.99,,,-99.99,,2013-04-01 09:42:00,
2013-04-01 05:52:00,49.0,49.0,29.79,West,280,9.0,9.0,100,-99.99,,,-99.99,,2013-04-01 09:52:00,
2013-04-01 06:00:00,46.0,46.0,29.78,SSW,200,6.0,7.0,100,-99.99,,,-99.99,,2013-04-01 10:00:00,
2013-04-01 06:22:00,46.0,46.0,29.78,SSW,200,6.0,7.0,100,-99.99,,,-99.99,,2013-04-01 10:22:00,
2013-04-01 06:32:00,46.0,46.0,29.78,SSW,200,6.0,7.0,100,-99.99,,,-99.99,,2013-04-01 10:32:00,
2013-04-01 06:41:00,46.0,46.0,29.78,SSW,200,6.0,7.0,100,-99.99,,,-99.99,,2013-04-01 10:41:00,
2013-04-01 06:52:00,46.0,46.0,29.78,SSW,200,6.0,7.0,100,-99.99,,,-99.99,,2013-04-01 10:52:00,
2013-04-01 08:00:00,46.0,46.0,29.80,SW,230,9.0,9.0,100,-99.99,,,-99.99,,2013-04-01 12:00:00,
2013-04-01 08:21:00,46.0,46.0,29.80,SW,230,9.0,9.0,100,-99.99,,,-99.99,,2013-04-01 12:21:00,
2013-04-01 08:31:00,46.0,46.0,29.80,SW,230,9.0,9.0,100,-99.99,,,-99.99,,2013-04-01 12:31:00,
2013-04-01 08:41:00,46.0,46.0,29.80,SW,230,9.0,9.0,100,-99.99,,,-99.99,,2013-04-01 12:41:00,
2013-04-01 08:52:00,46.0,46.0,29.80,SW,230,9.0,9.0,100,-99.99,,,-99.99,,2013-04-01 12:52:00,
2013-04-01 09:00:00,48.0,48.0,29.80,SSW,210,7.0,8.0,100,-99.99,,,-99.99,,2013-04-01 13:00:00,
2013-04-01 09:21:00,48.0,48.0,29.80,SSW,210,7.0,8.0,100,-99.99,,,-99.99,,2013-04-01 13:21:00,
2013-04-01 09:31:00,48.0,48.0,29.80,SSW,210,7.0,8.0,100,-99.99,,,-99.99,,2013-04-01 13:31:00,
2013-04-01 09:41:00,48.0,48.0,29.80,SSW,210,7.0,8.0,100,-99.99,,,-99.99,,2013-04-01 13:41:00,
2013-04-01 09:52:00,48.0,48.0,29.80,SSW,210,7.0,8.0,100,-99.99,,,-99.99,,2013-04-01 13:52:00,
2013-04-01 10:00:00,48.0,47.0,29.79,South,170,10.0,10.0,99,-99.99,,,-99.99,,2013-04-01 14:00:00,
2013-04-01 10:21:00,48.0,47.0,29.79,South,170,10.0,10.0,99,-99.99,,,-99.99,,2013-04-01 14:21:00,
2013-04-01 10:32:00,48.0,47.0,29.79,South,170,10.0,10.0,99,-99.99,,,-99.99,,2013-04-01 14:32:00,
2013-04-01 10:41:00,48.0,47.0,29.79,South,170,10.0,10.0,99,-99.99,,,-99.99,,2013-04-01 14:41:00,
2013-04-01 10:52:00,48.0,47.0,29.79,South,170,10.0,10.0,99,-99.99,,,-99.99,,2013-04-01 14:52:00,
2013-04-01 11:00:00,50.0,47.0,29.78,South,180,10.0,11.0,88,-99.99,,,-99.99,,2013-04-01 15:00:00,
2013-04-01 11:22:00,50.0,47.0,29.78,South,180,10.0,11.0,88,-99.99,,,-99.99,,2013-04-01 15:22:00,
2013-04-01 11:33:00,50.0,47.0,29.78,South,180,10.0,11.0,88,-99.99,,,-99.99,,2013-04-01 15:33:00,
2013-04-01 11:42:00,50.0,47.0,29.78,South,180,10.0,11.0,88,-99.99,,,-99.99,,2013-04-01 15:42:00,
2013-04-01 11:53:00,50.0,47.0,29.78,South,180,10.0,11.0,88,-99.99,,,-99.99,,2013-04-01 15:53:00,
2013-04-01 12:12:00,51.0,45.0,29.77,South,170,10.0,11.0,77,-99.99,,,-99.99,,2013-04-01 16:12:00,
2013-04-01 12:22:00,51.0,45.0,29.77,South,170,10.0,11.0,77,-99.99,,,-99.99,,2013-04-01 16:22:00,
2013-04-01 12:32:00,51.0,45.0,29.77,South,170,10.0,11.0,77,-99.99,,,-99.99,,2013-04-01 16:32:00,
2013-04-01 13:00:00,61.0,37.0,29.74,West,270,10.0,11.0,41,-99.99,,,-99.99,,2013-04-01 17:00:00,
2013-04-01 13:11:00,61.0,37.0,29.74,West,270,10.0,11.0,41,-99.99,,,-99.99,,2013-04-01 17:11:00,
2013-04-01 13:22:00,61.0,37.0,29.74,West,270,10.0,11.0,41,-99.99,,,-99.99,,2013-04-01 17:22:00,
2013-04-01 13:31:00,61.0,37.0,29.74,West,270,10.0,11.0,41,-99.99,,,-99.99,,2013-04-01 17:31:00,
2013-04-01 13:41:00,61.0,37.0,29.74,West,270,10.0,11.0,41,-99.99,,,-99.99,,2013-04-01 17:41:00,
2013-04-01 13:51:00,61.0,37.0,29.74,West,270,10.0,11.0,41,-99.99,,,-99.99,,2013-04-01 17:51:00,
2013-04-01 14:00:00,61.0,36.0,29.73,West,280,7.0,7.0,39,-99.99,,,-99.99,,2013-04-01 18:00:00,
2013-04-01 14:11:00,61.0,36.0,29.73,West,280,7.0,7.0,39,-99.99,,,-99.99,,2013-04-01 18:11:00,
2013-04-01 14:21:00,61.0,36.0,29.73,West,280,7.0,7.0,39,-99.99,,,-99.99,,2013-04-01 18:21:00,
2013-04-01 14:32:00,61.0,36.0,29.73,West,280,7.0,7.0,39,-99.99,,,-99.99,,2013-04-01 18:32:00,
2013-04-01 14:41:00,61.0,36.0,29.73,West,280,7.0,7.0,39,-99.99,,,-99.99,,2013-04-01 18:41:00,
2013-04-01 14:51:00,61.0,36.0,29.73,West,280,7.0,7.0,39,-99.99,,,-99.99,,2013-04-01 18:51:00,
2013-04-01 15:00:00,60.0,35.0,29.72,WNW,300,23.0,28.0,39,-99.99,,,-99.99,,2013-04-01 19:00:00,
2013-04-01 15:11:00,60.0,35.0,29.72,WNW,300,23.0,28.0,39,-99.99,,,-99.99,,2013-04-01 19:11:00,
2013-04-01 15:21:00,60.0,35.0,29.72,WNW,300,23.0,28.0,39,-99.99,,,-99.99,,2013-04-01 19:21:00,
2013-04-01 15:31:00,60.0,35.0,29.72,WNW,300,23.0,28.0,39,-99.99,,,-99.99,,2013-04-01 19:31:00,
2013-04-01 15:41:00,60.0,35.0,29.72,WNW,300,23.0,28.0,39,-99.99,,,-99.99,,2013-04-01 19:41:00,
2013-04-01 15:52:00,60.0,35.0,29.72,WNW,300,23.0,28.0,39,-99.99,,,-99.99,,2013-04-01 19:52:00,
2013-04-01 16:00:00,57.0,36.0,29.76,NW,310,23.0,28.0,46,-99.99,,,-99.99,,2013-04-01 20:00:00,
2013-04-01 16:21:00,57.0,36.0,29.76,NW,310,23.0,28.0,46,-99.99,,,-99.99,,2013-04-01 20:21:00,
2013-04-01 16:32:00,57.0,36.0,29.76,NW,310,23.0,28.0,46,-99.99,,,-99.99,,2013-04-01 20:32:00,
2013-04-01 16:42:00,57.0,36.0,29.76,NW,310,23.0,28.0,46,-99.99,,,-99.99,,2013-04-01 20:42:00,
2013-04-01 16:51:00,57.0,36.0,29.76,NW,310,23.0,28.0,46,-99.99,,,-99.99,,2013-04-01 20:51:00,
2013-04-01 17:00:00,55.0,34.0,29.78,WNW,300,21.0,23.0,44,-99.99,,,-99.99,,2013-04-01 21:00:00,
2013-04-01 17:22:00,55.0,34.0,29.78,WNW,300,21.0,23.0,44,-99.99,,,-99.99,,2013-04-01 21:22:00,
2013-04-01 17:32:00,55.0,34.0,29.78,WNW,300,21.0,23.0,44,-99.99,,,-99.99,,2013-04-01 21:32:00,
2013-04-01 17:43:00,55.0,34.0,29.78,WNW,300,21.0,23.0,44,-99.99,,,-99.99,,2013-04-01 21:43:00,
2013-04-01 17:52:00,55.0,34.0,29.78,WNW,300,21.0,23.0,44,-99.99,,,-99.99,,2013-04-01 21:52:00,
2013-04-01 18:00:00,53.0,31.0,29.81,NW,310,24.0,28.0,41,-99.99,,,-99.99,,2013-04-01 22:00:00,
2013-04-01 18:12:00,53.0,31.0,29.81,NW,310,24.0,28.0,41,-99.99,,,-99.99,,2013-04-01 22:12:00,
2013-04-01 18:22:00,53.0,31.0,29.81,NW,310,24.0,28.0,41,-99.99,,,-99.99,,2013-04-01 22:22:00,
2013-04-01 18:32:00,53.0,31.0,29.81,NW,310,24.0,28.0,41,-99.99,,,-99.99,,2013-04-01 22:32:00,
2013-04-01 18:42:00,53.0,31.0,29.81,NW,310,24.0,28.0,41,-99.99,,,-99.99,,2013-04-01 22:42:00,
2013-04-01 18:52:00,53.0,31.0,29.81,NW,310,24.0,28.0,41,-99.99,,,-99.99,,2013-04-01 22:52:00,
2013-04-01 19:00:00,52.0,28.0,29.85,NW,310,20.0,22.0,39,-99.99,,,-99.99,,2013-04-01 23:00:00,
2013-04-01 19:11:00,52.0,28.0,29.85,NW,310,20.0,22.0,39,-99.99,,,-99.99,,2013-04-01 23:11:00,
2013-04-01 19:21:00,52.0,28.0,29.85,NW,310,20.0,22.0,39,-99.99,,,-99.99,,2013-04-01 23:21:00,
2013-04-01 19:32:00,52.0,28.0,29.85,NW,310,20.0,22.0,39,-99.99,,,-99.99,,2013-04-01 23:32:00,
2013-04-01 19:42:00,52.0,28.0,29.85,NW,310,20.0,22.0,39,-99.99,,,-99.99,,2013-04-01 23:42:00,
2013-04-01 19:52:00,52.0,28.0,29.85,NW,310,20.0,22.0,39,-99.99,,,-99.99,,2013-04-01 23:52:00,
2013-04-01 20:00:00,49.0,24.0,29.88,NW,310,23.0,26.0,38,-99.99,,,-99.99,,2013-04-02 00:00:00,
2013-04-01 20:21:00,49.0,24.0,29.88,NW,310,23.0,26.0,38,-99.99,,,-99.99,,2013-04-02 00:21:00,
2013-04-01 20:32:00,49.0,24.0,29.88,NW,310,23.0,26.0,38,-99.99,,,-99.99,,2013-04-02 00:32:00,
2013-04-01 20:41:00,49.0,24.0,29.88,NW,310,23.0,26.0,38,-99.99,,,-99.99,,2013-04-02 00:41:00,
2013-04-01 20:52:00,49.0,24.0,29.88,NW,310,23.0,26.0,38,-99.99,,,-99.99,,2013-04-02 00:52:00,
2013-04-01 21:11:00,48.0,23.0,29.93,NW,310,14.0,16.0,37,-99.99,,,-99.99,,2013-04-02 01:11:00,
2013-04-01 21:21:00,48.0,23.0,29.93,NW,310,14.0,16.0,37,-99.99,,,-99.99,,2013-04-02 01:21:00,
2013-04-01 21:31:00,48.0,23.0,29.93,NW,310,14.0,16.0,37,-99.99,,,-99.99,,2013-04-02 01:31:00,
2013-04-01 21:41:00,48.0,23.0,29.93,NW,310,14.0,16.0,37,-99.99,,,-99.99,,2013-04-02 01:41:00,
2013-04-01 21:52:00,48.0,23.0,29.93,NW,310,14.0,16.0,37,-99.99,,,-99.99,,2013-04-02 01:52:00,
2013-04-01 22:00:00,47.0,21.0,29.95,NW,310,17.0,20.0,35,-99.99,,,-99.99,,2013-04-02 02:00:00,
2013-04-01 22:21:00,47.0,21.0,29.95,NW,310,17.0,20.0,35,-99.99,,,-99.99,,2013-04-02 02:21:00,
2013-04-01 22:31:00,47.0,21.0,29.95,NW,310,17.0,20.0,35,-99.99,,,-99.99,,2013-04-02 02:31:00,
2013-04-01 22:41:00,47.0,21.0,29.95,NW,310,17.0,20.0,35,-99.99,,,-99.99,,2013-04-02 02:41:00,
2013-04-01 22:52:00,47.0,21.0,29.95,NW,310,17.0,20.0,35,-99.99,,,-99.99,,2013-04-02 02:52:00,
2013-04-01 23:00:00,45.0,21.0,29.96,NNW,330,16.0,17.0,37,-99.99,,,-99.99,,2013-04-02 03:00:00,
2013-04-01 23:11:00,45.0,21.0,29.96,NNW,330,16.0,17.0,37,-99.99,,,-99.99,,2013-04-02 03:11:00,
2013-04-01 23:21:00,45.0,21.0,29.96,NNW,330,16.0,17.0,37,-99.99,,,-99.99,,2013-04-02 03:21:00,
2013-04-01 23:33:00,45.0,21.0,29.96,NNW,330,16.0,17.0,37,-99.99,,,-99.99,,2013-04-02 03:33:00,
2013-04-01 23:42:00,45.0,21.0,29.96,NNW,330,16.0,17.0,37,-99.99,,,-99.99,,2013-04-02 03:42:00,
2013-04-01 23:52:00,45.0,21.0,29.96,NNW,330,16.0,17.0,37,-99.99,,,-99.99,,2013-04-02 03:52:00,